Погода в Сараях

Россия / Рязанская область     53°44′17″N   41°00′34″E
темп.,
°C
ветер,
м/с
пор.,
м/с
влажн.,
%
обл.,
%
осадки,
мм/ч
давл.,
гПа
погр.,
м
18 августа, чт
чт1800:00+22всв51045100 0.0 1016279
03:00+22всв51143100 0.0 1016342
06:00+21всв51140100 0.0 1016299
09:00+23всв6941100 0.0 1017413
12:00+29в782997 0.0 10161464
15:00+27в81033100 0.0 10161030
18:00+25всв71239100 0.0 1016725
21:00+24всв71343100 0.0 1017723
19 августа, пт
пт1900:00+22всв61347100 0.0 1018594
03:00+21в51045100 0.0 1019670
06:00+16в61487100 1.0 1020651
09:00+16в61492100 3.1 1022714
12:00+17в61284100 0.4 1023646
15:00+17в61277100 0.9 1024481
18:00+17вюв41176100 0.4 1024387
21:00+17в2577100 0.6 1023112
20 августа, сб
сб2000:00+17всв61369100 0.1 1024348
03:00+17в41266100 0.1 1025334
06:00+17вюв61669100 0.1 1025465
09:00+19вюв7144386 0.1 1025493
12:00+26вюв9112439 0.0 10251015
15:00+26вюв8102676 0.0 1025928
18:00+25в7112761 0.0 1024864
21:00+19в5133170 0.0 1025277
21 августа, вс
вс2100:00+19вюв51234100 0.0 1025313
03:00+16вюв51335100 0.0 1026259
06:00+15вюв5123781 0.0 1026248
09:00+22юв6927100 0.0 1026493
12:00+26юв681995 0.0 10251566
15:00+27юв571787 0.0 10241988
18:00+26вюв472280 0.0 1023282
21:00+20в463374 0.0 102384
22 августа, пн
пн2200:00+18вюв344339 0.0 102348
03:00+17в475461 0.0 1024104
06:00+17вюв310625 0.0 1024187
09:00+26вюв59385 0.0 1024521
12:00+30юв68275 0.0 10232767
15:00+32вюв67245 0.0 10223246
18:00+30вюв5929100 0.0 1022546
21:00+24вюв512394 0.0 1023234